Tower City, North Dakota
Current Conditions -  °F | °C
As of 1:35 AM on Wednesday 22 Oct 2014 (Local Time) from KBAC Reporting Station
Few Clouds Few Clouds  
Wind Chill: 55°   Ceiling: Unl
Heat Index: 55°   Visibility: 10mi
Dew Point: 43°   Wind: 16mph
Humidity: 63%   Direction: 160°SSE
Pressure: 29.82"   Gusts: 23mph
Location:  46.92°N, 97.67°W
Report Text: KBAC 220635Z AUTO 16014G20KT 10SM FEW025 13/06 A2982 RMK AO2
Loading
Personal Weather Stations






























Interactive Weather Map
Tropical Storm Tracking
New forecast layout! Learn more

10-Day Weather Forecast

Advertisements
Track Severe Weather on mobile